Weather History for Cheyenne, WY

Change the Weather History Date:

Saturday, March 2, 2013

  Actual Average Record
Temperature  
Mean Temperature 44 °F 33 °F  
Max Temperature 53 °F 44 °F 69 °F (2009)
Min Temperature 34 °F 21 °F -21 °F (1943)
Degree Days  
Heating Degree Days 21 32  
Month to date heating degree days 53 65  
Since 1 July heating degree days 4986 5084  
Cooling Degree Days 0 0  
Month to date cooling degree days 0 0  
Year to date cooling degree days 0 0  
Moisture  
Dew Point 22 °F    
Average Humidity 46    
Maximum Humidity 64    
Minimum Humidity 28    
Precipitation  
Precipitation 0.00 in 0.03 in 0.43 in (1945)
Month to date precipitation 0.00 0.05  
Year to date precipitation 0.88 0.85  
Snow  
Snow 0.00 in 0.30 in 5.90 in (1945)
Month to date snowfall 0.0 0.6  
Since 1 July snowfall 38.4 37.1  
Snow Depth 0.00 in    
Sea Level Pressure  
Sea Level Pressure 30.16 in    
Wind  
Wind Speed 15 mph (WNW)    
Max Wind Speed 29 mph    
Max Gust Speed 40 mph    
Visibility 10 miles    
Events      
T = Trace of Precipitation, MM = Missing Value Source: NWS Daily Summary

Daily Weather History Graph

Daily Weather History Graph

Search for Another Location

Airport:

Trip Planner

Search our weather history database for the weather conditions in past years. The results will help you decide how hot, cold, wet, or windy it might be!

Date:

Astronomy

Mar. 02, 2013 Rise Set
Actual Time 6:31 AM MST 5:51 PM MST
Civil Twilight 6:03 AM MST 6:19 PM MST
Nautical Twilight 5:32 AM MST 6:51 PM MST
Astronomical Twilight 5:00 AM MST 7:23 PM MST
Moon 11:37 PM MST (3/2) 8:58 AM MST (3/2)
Length of Visible Light 12h 15m
Length of Day
11h 20m
Waning Gibbous, 73% of the Moon is Illuminated
Mar 2
Waning Gibbous
Mar 4
Last Quarter
Mar 11
New
Mar 19
First Quarter
Mar 27
Full

Hourly Weather History & Observations

Time (MST) Temp. Windchill Dew Point Humidity Pressure Visibility Wind Dir Wind Speed Gust Speed Precip Events Conditions
12:53 AM 37.0 °F 27.4 °F 24.1 °F 59% 30.27 in 10.0 mi WNW 17.3 mph - N/A   Scattered Clouds
1:53 AM 35.6 °F 27.5 °F 24.8 °F 65% 30.27 in 10.0 mi NW 11.5 mph - N/A   Clear
2:53 AM 35.1 °F 26.4 °F 23.0 °F 61% 30.24 in 10.0 mi NW 12.7 mph - N/A   Clear
3:53 AM 36.0 °F 26.3 °F 21.9 °F 57% 30.25 in 10.0 mi NW 16.1 mph 20.7 mph N/A   Clear
4:53 AM 35.6 °F 28.0 °F 21.2 °F 56% 30.26 in 10.0 mi NW 10.4 mph 19.6 mph N/A   Clear
5:53 AM 35.1 °F 25.2 °F 21.9 °F 59% 30.27 in 10.0 mi NW 16.1 mph 21.9 mph N/A   Clear
6:53 AM 35.1 °F 24.1 °F 21.0 °F 57% 30.26 in 10.0 mi WNW 19.6 mph 29.9 mph N/A   Clear
7:53 AM 37.9 °F 28.5 °F 21.9 °F 53% 30.25 in 10.0 mi WNW 17.3 mph 27.6 mph N/A   Clear
8:53 AM 42.1 °F 32.8 °F 21.0 °F 43% 30.25 in 10.0 mi WNW 21.9 mph 29.9 mph N/A   Clear
9:53 AM 46.0 °F 36.9 °F 21.0 °F 37% 30.22 in 10.0 mi WNW 28.8 mph 40.3 mph N/A   Clear
10:53 AM 48.0 °F - 21.9 °F 36% 30.21 in 10.0 mi West 21.9 mph 31.1 mph N/A   Clear
11:53 AM 50.0 °F - 21.0 °F 32% 30.18 in 10.0 mi WNW 17.3 mph 21.9 mph N/A   Clear
12:53 PM 51.1 °F - 21.0 °F 31% 30.14 in 10.0 mi NW 16.1 mph 27.6 mph N/A   Clear
1:53 PM 51.1 °F - 21.0 °F 31% 30.12 in 10.0 mi NW 20.7 mph 33.4 mph N/A   Clear
2:53 PM 52.0 °F - 19.9 °F 28% 30.11 in 10.0 mi NNW 19.6 mph 27.6 mph N/A   Clear
3:53 PM 51.1 °F - 21.9 °F 32% 30.10 in 10.0 mi North 13.8 mph 24.2 mph N/A   Clear
4:53 PM 46.9 °F - 24.1 °F 41% 30.13 in 10.0 mi North 10.4 mph 18.4 mph N/A   Clear
5:53 PM 44.6 °F 40.2 °F 23.0 °F 43% 30.16 in 10.0 mi NNW 8.1 mph - N/A   Clear
6:53 PM 43.0 °F 40.3 °F 23.0 °F 45% 30.14 in 10.0 mi WNW 4.6 mph - N/A   Clear
7:53 PM 43.0 °F 37.2 °F 21.9 °F 43% 30.09 in 10.0 mi West 10.4 mph 19.6 mph N/A   Clear
8:53 PM 44.1 °F 37.7 °F 19.9 °F 38% 30.05 in 10.0 mi SW 12.7 mph 25.3 mph N/A   Clear
9:53 PM 42.1 °F 36.6 °F 19.9 °F 41% 30.03 in 10.0 mi West 9.2 mph - N/A   Clear
10:53 PM 39.9 °F 33.9 °F 21.0 °F 47% 29.99 in 10.0 mi WSW 9.2 mph - N/A   Clear
11:53 PM 39.9 °F 34.5 °F 21.0 °F 47% 29.94 in 10.0 mi SSW 8.1 mph - N/A   Clear